Change the Weather History Date:

Tuesday, August 20, 2013

  Actual Average Record
Temperature  
Mean Temperature 72 °F -  
Max Temperature 82 °F 89 °F 101 °F (1983)
Min Temperature 64 °F 69 °F 58 °F (1949)
Cooling Degree Days 7    
Growing Degree Days 22 (Base 50)    
Moisture  
Dew Point 68 °F    
Average Humidity 94    
Maximum Humidity 100    
Minimum Humidity 74    
Precipitation  
Precipitation 0.00 in - - ()
Sea Level Pressure  
Sea Level Pressure 30.16 in    
Wind  
Wind Speed 0 mph (ENE)    
Max Wind Speed 5 mph    
Max Gust Speed -    
Visibility 5 miles    
Events Fog , Rain    
Averages and records for this station are not official NWS values.
T = Trace of Precipitation, MM = Missing Value Source: NWS Daily Summary

Daily Weather History Graph

Daily Weather History Graph

Search for Another Location

Airport or City:

Trip Planner

Search our weather history database for the weather conditions in past years. The results will help you decide how hot, cold, wet, or windy it might be!

Date:

Astronomy

Aug. 20, 2013 Rise Set
Actual Time 6:48 AM EDT 8:06 PM EDT
Civil Twilight 6:21 AM EDT 8:32 PM EDT
Nautical Twilight 5:50 AM EDT 9:04 PM EDT
Astronomical Twilight 5:17 AM EDT 9:37 PM EDT
Moon 7:39 PM EDT (8/20) 6:15 AM EDT (8/20)
Length of Visible Light 14h 10m
Length of Day
13h 18m
Full, 100% of the Moon is Illuminated
Aug 20
Full
Aug 20
Full
Aug 28
Last Quarter
Sep 5
New
Sep 12
First Quarter

Hourly Weather History & Observations

Time (EDT) Temp. Heat Index Dew Point Humidity Pressure Visibility Wind Dir Wind Speed Gust Speed Precip Events Conditions
12:33 AM 66.0 °F - 66.0 °F 100% 30.16 in 0.8 mi Calm Calm - N/A   Clear
12:40 AM 66.0 °F - 66.0 °F 100% 30.16 in 0.5 mi Calm Calm - N/A Fog Fog
12:44 AM 66.0 °F - 66.0 °F 100% 30.16 in 0.8 mi Calm Calm - N/A   Mist
12:46 AM 66.0 °F - 66.0 °F 100% 30.16 in 1.2 mi Calm Calm - N/A   Partly Cloudy
12:54 AM 66.9 °F - 66.0 °F 97% 30.13 in 2.5 mi Calm Calm - N/A   Clear
1:15 AM 66.0 °F - 66.0 °F 100% 30.16 in 10.0 mi Calm Calm - N/A   Clear
1:33 AM 66.0 °F - 66.0 °F 100% 30.16 in 1.8 mi Calm Calm - N/A   Clear
1:40 AM 66.0 °F - 66.0 °F 100% 30.16 in 0.5 mi Calm Calm - N/A Fog Fog
1:50 AM 66.2 °F - 66.2 °F 100% 30.15 in 1.0 mi Calm Calm - N/A   Clear
1:54 AM 64.9 °F - 64.9 °F 100% 30.13 in 0.8 mi Calm Calm - N/A   Clear
2:01 AM 66.0 °F - 66.0 °F 100% 30.15 in 2.0 mi Calm Calm - N/A   Clear
2:10 AM 64.9 °F - 64.9 °F 100% 30.15 in 0.8 mi Calm Calm - N/A   Clear
2:23 AM 64.9 °F - 64.9 °F 100% 30.14 in 2.0 mi Calm Calm - N/A   Clear
2:30 AM 66.0 °F - 66.0 °F 100% 30.14 in 8.0 mi Calm Calm - N/A   Clear
2:54 AM 64.9 °F - 64.9 °F 100% 30.12 in 5.0 mi Calm Calm - N/A   Partly Cloudy
3:31 AM 66.0 °F - 66.0 °F 100% 30.15 in 1.5 mi Calm Calm - N/A   Clear
3:54 AM 66.0 °F - 66.0 °F 100% 30.11 in 1.5 mi Calm Calm - N/A   Clear
3:56 AM 66.0 °F - 66.0 °F 100% 30.14 in 3.0 mi Calm Calm - N/A   Clear
4:54 AM 66.9 °F - 66.9 °F 100% 30.11 in 2.0 mi Calm Calm - N/A   Clear
5:01 AM 66.0 °F - 66.0 °F 100% 30.14 in 1.8 mi Calm Calm - N/A   Clear
5:03 AM 66.0 °F - 66.0 °F 100% 30.14 in 3.0 mi Calm Calm - N/A   Clear
5:22 AM 66.0 °F - 66.0 °F 100% 30.14 in 1.8 mi Calm Calm - N/A   Clear
5:34 AM 66.0 °F - 66.0 °F 100% 30.15 in 4.0 mi Calm Calm - N/A   Clear
5:47 AM 66.0 °F - 66.0 °F 100% 30.15 in 0.8 mi Calm Calm - N/A   Clear
5:54 AM 66.0 °F - 66.0 °F 100% 30.12 in 0.5 mi Calm Calm - N/A Fog Fog
6:01 AM 66.0 °F - 66.0 °F 100% 30.15 in 1.0 mi Calm Calm - N/A   Clear
6:08 AM 66.0 °F - 66.0 °F 100% 30.15 in 0.5 mi Calm Calm - N/A Fog Fog
6:14 AM 64.9 °F - 64.9 °F 100% 30.15 in 0.8 mi Calm Calm - N/A   Mist
6:20 AM 66.0 °F - 66.0 °F 100% 30.15 in 1.2 mi Calm Calm - N/A   Scattered Clouds
6:25 AM 66.0 °F - 66.0 °F 100% 30.15 in 0.8 mi Calm Calm - N/A   Mist
6:33 AM 66.0 °F - 66.0 °F 100% 30.15 in 0.5 mi Calm Calm - N/A Fog Fog
6:35 AM 66.0 °F - 66.0 °F 100% 30.15 in 1.0 mi Calm Calm - N/A   Mist
6:50 AM 66.2 °F - 66.2 °F 100% 30.16 in 0.5 mi Calm Calm - N/A Fog Fog
6:54 AM 64.9 °F - 64.9 °F 100% 30.13 in 0.2 mi Calm Calm - N/A Fog Fog
7:04 AM 66.0 °F - 66.0 °F 100% 30.16 in 2.0 mi Calm Calm - N/A   Mostly Cloudy
7:10 AM 66.0 °F - 66.0 °F 100% 30.16 in 0.8 mi Calm Calm - N/A   Mist
7:21 AM 66.0 °F - 66.0 °F 100% 30.17 in 1.5 mi Calm Calm - N/A   Partly Cloudy
7:23 AM 66.0 °F - 66.0 °F 100% 30.17 in 3.0 mi Calm Calm - N/A   Clear
7:35 AM 66.9 °F - 66.9 °F 100% 30.17 in 6.0 mi Calm Calm - N/A   Scattered Clouds
7:54 AM 68.0 °F - 68.0 °F 100% 30.14 in 4.0 mi Calm Calm - N/A   Partly Cloudy
8:54 AM 71.1 °F - 70.0 °F 96% 30.16 in 7.0 mi NNE 3.5 mph - N/A   Partly Cloudy
9:42 AM 73.0 °F - 70.0 °F 90% 30.19 in 10.0 mi ESE 4.6 mph - N/A   Mostly Cloudy
9:54 AM 73.0 °F - 70.0 °F 90% 30.17 in 10.0 mi Calm Calm - N/A   Mostly Cloudy
10:12 AM 73.0 °F - 70.0 °F 90% 30.20 in 10.0 mi SE 3.5 mph - N/A   Scattered Clouds
10:54 AM 75.9 °F - 70.0 °F 82% 30.19 in 10.0 mi Variable 4.6 mph - N/A   Partly Cloudy
11:54 AM 75.9 °F - 70.0 °F 82% 30.19 in 10.0 mi Calm Calm - N/A   Partly Cloudy
12:07 PM 75.9 °F - 70.0 °F 82% 30.22 in 10.0 mi Calm Calm - N/A   Mostly Cloudy
12:26 PM 77.0 °F - 71.1 °F 82% 30.22 in 10.0 mi Calm Calm - N/A   Scattered Clouds
12:50 PM 77.0 °F - 69.8 °F 78% 30.22 in 10.0 mi NE 3.5 mph - N/A   Mostly Cloudy
12:54 PM 77.0 °F - 70.0 °F 79% 30.19 in 10.0 mi Calm Calm - N/A   Mostly Cloudy
1:54 PM 75.9 °F - 70.0 °F 82% 30.19 in 10.0 mi Calm Calm - 0.00 in Rain Light Rain
2:54 PM 78.1 °F - 71.1 °F 79% 30.16 in 10.0 mi Calm Calm - 0.00 in   Overcast
3:54 PM 79.0 °F - 72.0 °F 79% 30.13 in 10.0 mi NNE 3.5 mph - N/A   Overcast
4:54 PM 79.0 °F - 71.1 °F 77% 30.12 in 10.0 mi Calm Calm - N/A   Overcast
5:27 PM 80.1 °F 83.6 °F 71.1 °F 74% 30.15 in 10.0 mi Calm Calm - N/A   Scattered Clouds
5:54 PM 80.1 °F 83.8 °F 72.0 °F 76% 30.13 in 10.0 mi Variable 3.5 mph - N/A   Clear
6:54 PM 77.0 °F - 72.0 °F 84% 30.14 in 10.0 mi Calm Calm - N/A   Clear
7:19 PM 75.9 °F - 72.0 °F 87% 30.17 in 10.0 mi NNE 3.5 mph - N/A   Mostly Cloudy
7:27 PM 75.9 °F - 72.0 °F 87% 30.17 in 10.0 mi Calm Calm - N/A   Scattered Clouds
7:34 PM 75.9 °F - 72.0 °F 87% 30.17 in 10.0 mi Calm Calm - N/A   Mostly Cloudy
7:54 PM 75.9 °F - 73.0 °F 91% 30.14 in 10.0 mi Calm Calm - N/A   Mostly Cloudy
8:54 PM 73.9 °F - 72.0 °F 93% 30.14 in 10.0 mi Calm Calm - N/A   Clear
9:54 PM 73.9 °F - 72.0 °F 93% 30.17 in 10.0 mi Calm Calm - N/A   Partly Cloudy
10:54 PM 73.0 °F - 72.0 °F 96% 30.18 in 10.0 mi Calm Calm - N/A   Clear
11:54 PM 73.0 °F - 73.0 °F 100% 30.18 in 9.0 mi Calm Calm - 0.00 in Rain Light Rain